Location: Maiden
(35.5760°N, 81.2120°W)
Time: 02:41:48
(UTC-04:00)

A-11 Canister half - Pass Details

Date: 13 August 2020
Orbit: 1527 x 1682 km, 47.3° (Epoch: 25 September)

Event Time Altitude Azimuth Distance (km) Brightness Sun altitude
Rises 19:58:19 0° 300° (WNW) 4,915 13.6 2.6°
Reaches altitude 10° 20:01:45 10° 294° (WNW) 3,910 13.4 1.9°
Maximum altitude 20:10:43 40° 230° (SW) 2,256 10.3 0.2°
Drops below altitude 10° 20:19:27 10° 165° (SSE) 3,790 10.7 -1.5°
Sets 20:22:45 0° 157° (SSE) 4,750 11.2 -2.2°
